Theta_e
281 281 281 283 283 282 283 283 283 283 284 283 281 280 283 282 279 278 282 282 281 285 287 289 291 292 293 293 294 294 294 295 297 298 299 300 305 310 311 307 304 306 308 312 317 321 324 325 327 328 329 330 330 331 331 332 332 332 333 333 332 332 331 331 331 331 330 330 329 328 327 326 325 324 323 322 321 319 318 316 314 313 311 310 308 307 306
284 285 285 285 283 282 283 283 284 285 284 284 284 283 284 284 283 284 283 284 284 287 289 291 293 294 295 295 295 294 294 295 296 297 298 300 305 309 311 312 307 306 310 313 318 321 323 325 326 327 329 329 330 330 331 332 332 333 333 333 332 332 331 331 332 331 330 329 328 328 327 326 325 324 323 321 320 318 317 316 314 312 311 310 308 307 305
282 284 286 285 285 284 282 284 284 285 286 285 285 285 285 285 284 284 284 283 284 290 291 292 295 295 295 295 294 293 294 294 295 297 298 301 305 309 311 313 312 309 311 314 318 321 323 325 326 327 328 330 330 331 331 332 332 333 334 333 332 332 331 332 332 331 330 329 328 327 327 326 325 324 322 321 319 318 316 315 313 312 310 309 307 306 305
279 283 284 285 285 284 282 282 283 283 283 282 284 283 286 284 283 284 283 282 283 289 291 292 294 294 293 292 292 292 293 293 296 297 299 302 305 309 312 313 313 311 312 314 317 320 322 324 326 327 328 329 330 331 332 332 333 334 333 333 332 332 332 332 332 331 330 328 327 327 326 325 324 323 322 320 318 317 315 314 313 312 310 309 307 306 305
278 282 284 283 283 282 279 280 283 285 284 285 286 287 288 288 288 284 280 283 287 290 291 289 291 292 292 292 292 292 293 293 295 297 300 303 305 308 311 313 314 314 313 315 318 319 322 324 326 327 329 329 330 331 331 332 333 333 333 333 333 332 332 332 331 331 329 328 327 326 326 325 324 323 321 319 318 316 315 314 312 311 310 309 307 306 305
278 282 282 282 279 272 273 281 286 288 286 285 284 285 288 289 288 286 288 289 290 288 289 288 289 290 291 292 293 293 293 295 296 298 301 303 305 307 311 313 315 315 313 315 318 320 322 324 326 327 329 330 331 332 332 332 331 332 332 332 332 332 332 331 331 330 329 328 327 326 326 325 324 322 320 319 318 317 316 314 312 311 310 308 307 306 305
278 281 282 276 270 273 285 288 289 290 291 290 288 288 289 289 289 289 289 290 290 292 293 293 294 295 296 297 296 297 296 297 298 299 300 300 303 307 310 313 314 314 314 314 316 318 321 323 324 326 328 330 330 331 331 330 331 331 332 332 332 332 331 331 331 330 328 327 326 326 325 324 323 322 320 319 317 316 315 313 312 310 309 308 307 306 305
280 279 276 273 274 284 288 288 292 293 292 289 288 287 289 290 290 291 289 291 293 294 296 299 300 298 300 301 300 300 300 299 300 300 301 302 302 305 311 314 313 314 315 316 318 320 322 324 325 328 328 330 330 329 330 330 330 331 331 331 331 331 330 330 330 329 328 327 326 325 324 323 322 321 320 318 317 316 315 313 312 311 310 309 307 306 305
278 276 276 280 285 285 287 287 290 290 288 288 288 284 289 293 290 290 291 292 294 297 299 300 300 301 300 296 298 300 299 300 302 302 303 302 302 305 309 314 316 316 316 317 319 320 322 325 326 327 328 329 330 329 329 329 329 330 330 330 330 329 329 330 329 329 328 326 325 324 324 322 321 321 320 318 317 316 314 313 311 310 309 309 308 307 305
282 280 278 278 277 276 281 289 293 295 294 293 292 291 288 295 296 293 292 295 299 299 299 299 300 300 292 290 293 298 296 298 301 302 304 304 304 305 305 306 309 313 316 317 318 322 323 324 326 327 328 329 329 328 328 328 328 328 328 328 329 329 329 329 329 328 328 326 324 323 323 322 321 321 320 319 317 315 314 313 311 311 310 308 306 306 305
280 280 277 276 275 278 285 289 293 296 297 296 294 288 284 292 294 298 300 298 299 300 299 300 301 299 290 289 293 295 300 304 304 303 303 304 305 305 306 305 305 308 315 320 320 320 323 323 324 326 327 328 328 327 326 327 327 327 327 328 329 329 329 330 329 328 327 326 324 323 322 322 322 321 319 318 317 316 315 313 311 310 308 307 306 306 305
279 278 277 277 278 281 286 292 295 298 299 298 293 281 279 290 297 298 299 298 298 299 300 301 300 297 290 294 296 299 306 308 308 307 306 302 301 301 300 301 304 305 313 317 318 319 321 322 324 325 326 327 325 326 326 327 327 327 327 328 330 330 330 329 329 328 327 325 324 323 322 322 321 320 318 317 316 314 312 311 309 308 307 306 305 304 304
280 280 280 278 281 286 292 295 298 300 300 296 283 279 284 294 296 299 300 300 299 300 300 301 298 301 302 303 304 307 308 307 308 309 306 302 300 301 303 305 303 304 314 319 320 321 322 323 324 325 326 326 324 324 325 326 326 328 329 329 329 329 329 329 328 327 326 325 323 323 323 322 321 318 317 316 314 313 311 310 308 307 305 304 304 303 303
281 280 279 281 284 290 295 297 298 301 295 284 282 291 298 299 299 301 302 301 301 300 301 302 302 303 305 306 306 306 307 307 307 308 309 307 304 305 306 306 303 305 312 316 317 319 321 323 325 325 326 324 324 324 324 325 326 328 328 329 329 328 328 328 327 326 325 325 324 323 323 322 319 317 315 315 314 313 310 309 307 306 305 304 303 302 302
283 281 280 280 279 288 295 298 296 300 287 287 296 299 301 302 301 301 302 302 301 302 301 304 304 305 305 305 306 307 307 307 307 308 307 304 303 307 308 306 305 307 312 316 318 319 321 323 325 326 325 323 322 322 323 324 326 326 326 327 327 327 327 326 325 325 324 323 322 324 322 319 317 312 311 313 313 311 309 307 306 305 305 304 303 301 301
282 282 281 282 287 294 298 297 288 295 297 300 301 300 299 302 303 303 302 302 302 303 303 304 304 305 305 305 307 307 308 309 310 309 308 308 307 308 310 311 308 307 310 314 317 317 320 322 324 325 325 323 321 321 323 326 325 326 326 326 326 325 324 325 324 323 323 322 323 323 320 316 313 309 310 311 311 310 309 307 305 304 304 303 302 301 301
287 285 288 291 295 296 298 300 299 300 302 303 303 303 303 302 303 306 303 303 304 305 305 305 305 304 305 305 307 307 308 309 309 309 310 310 311 311 311 313 313 308 309 309 311 314 318 320 322 324 325 323 319 320 323 324 323 324 324 324 324 324 323 323 322 323 322 322 322 321 319 315 311 309 308 309 309 308 308 307 306 304 303 303 302 302 301
292 295 295 297 297 297 298 300 302 301 303 305 305 304 303 304 305 305 304 305 305 306 307 305 305 305 305 306 307 309 310 310 310 311 310 311 312 311 311 312 312 312 312 311 310 310 314 319 322 322 324 324 320 321 323 324 325 325 325 324 323 322 319 319 321 321 320 320 320 319 317 316 312 310 309 308 308 307 307 307 306 305 302 302 302 302 301
289 285 292 293 295 297 298 299 301 303 304 305 306 305 305 305 305 306 307 306 306 306 306 305 304 305 307 306 308 309 310 310 310 310 310 310 310 309 311 310 309 313 313 313 312 312 312 315 319 321 323 324 323 321 323 324 325 325 325 323 320 318 318 320 320 320 319 319 318 316 315 313 311 309 309 309 308 307 308 306 305 304 302 302 302 301 301
288 288 294 295 296 296 298 300 300 302 304 305 306 306 307 307 308 307 307 307 306 306 305 306 306 306 307 307 308 309 310 310 310 310 310 310 311 312 312 311 312 313 313 314 314 314 314 315 317 319 321 322 321 321 322 323 325 324 320 319 318 318 318 318 316 317 317 306 311 314 313 311 308 308 308 308 307 306 307 306 304 302 302 301 301 300 301
291 292 293 293 294 296 298 301 302 303 304 304 305 306 306 307 307 307 307 306 305 305 304 306 306 306 307 308 309 309 309 310 310 310 311 311 312 312 313 312 310 313 313 312 312 313 313 315 316 316 317 317 319 320 321 322 322 320 318 314 317 317 316 315 315 313 316 314 314 313 311 310 309 309 308 307 307 307 307 306 306 304 303 303 302 303 303
286 286 290 294 287 288 295 299 301 303 305 305 305 305 306 306 306 306 305 305 306 307 306 306 306 307 307 308 308 309 309 310 310 310 310 311 312 313 313 314 314 313 312 313 314 314 315 317 317 317 316 317 318 320 321 321 321 319 315 316 317 315 314 315 315 313 313 313 313 311 310 308 306 305 297 300 304 307 304 301 299 299 300 304 305 305 304
286 293 296 296 295 295 298 300 302 303 304 304 303 303 304 305 305 306 305 304 305 306 307 307 306 306 307 307 308 309 309 309 310 311 310 310 311 312 312 313 313 313 313 313 314 314 315 316 317 317 317 318 319 320 321 321 321 318 316 315 315 314 312 313 310 312 312 312 311 310 309 307 306 304 302 299 295 296 298 298 297 296 297 297 298 299 303
295 296 296 297 296 295 299 302 302 303 304 304 303 304 305 305 305 305 305 305 304 305 306 308 307 306 306 306 306 307 309 310 309 310 309 309 310 311 312 312 311 312 312 313 313 313 315 315 315 316 316 317 318 319 320 320 320 317 315 314 313 312 312 312 307 305 310 309 308 308 307 307 305 303 302 299 297 293 293 294 294 295 295 294 296 296 297
293 298 298 298 298 299 301 301 302 302 304 304 302 303 303 303 304 305 305 305 305 305 305 306 308 307 306 307 307 307 308 309 308 306 307 307 306 308 310 310 310 310 310 311 313 315 315 316 315 315 316 316 316 317 317 316 316 314 313 312 311 311 310 306 306 305 306 306 306 307 306 305 304 304 302 301 299 296 294 292 293 294 294 294 295 295 295
298 297 298 299 299 299 300 300 301 301 302 302 302 302 303 304 304 305 306 306 306 306 306 306 306 307 308 308 308 306 307 308 306 305 310 309 309 309 309 309 309 309 309 309 309 311 313 314 315 315 315 315 316 317 317 316 315 314 313 313 312 310 308 307 308 308 307 307 306 306 306 306 305 305 301 303 301 298 297 296 296 294 292 293 294 294 294
294 295 296 297 296 297 298 297 296 299 300 301 301 302 303 304 305 305 306 306 306 306 306 306 306 307 308 308 307 308 307 308 309 310 309 308 308 308 308 307 308 308 308 309 308 306 306 310 312 312 312 314 314 314 315 315 314 313 312 311 310 301 295 301 309 308 307 306 306 305 305 305 304 303 303 302 299 299 299 298 298 298 297 295 292 294 296
291 292 294 292 293 294 296 298 299 299 300 300 301 302 303 303 304 304 304 304 305 305 306 306 304 305 306 308 308 309 310 309 308 309 309 308 309 309 308 307 307 307 308 308 309 307 308 310 310 310 311 312 313 314 314 314 313 312 311 309 307 305 305 305 307 308 307 307 307 306 305 305 304 303 301 300 298 299 298 299 298 298 296 296 295 292 293
290 291 292 295 297 297 298 299 299 299 299 301 302 301 301 300 301 301 302 302 303 303 304 305 304 305 305 307 308 308 308 309 308 307 308 309 309 309 308 307 305 305 306 307 308 309 309 309 309 309 309 310 312 313 313 313 311 310 308 307 306 306 306 305 306 305 306 306 306 305 299 300 301 302 301 299 298 299 299 299 298 298 297 294 294 294 293
290 291 291 294 294 295 295 296 297 298 299 300 300 300 301 300 299 300 301 302 302 302 303 303 301 304 305 306 306 306 306 306 307 307 308 307 308 308 308 307 307 307 307 307 307 306 306 306 305 306 307 309 310 310 311 310 309 309 307 307 306 306 306 306 306 306 306 305 301 293 299 301 302 301 300 300 299 298 298 298 297 296 295 295 293 294 294
290 290 290 292 291 292 292 294 296 297 298 299 299 299 300 301 299 299 300 301 301 301 301 302 303 303 304 303 304 304 305 305 306 306 306 306 307 307 308 308 307 305 306 306 306 305 305 304 304 304 306 308 309 309 308 307 306 306 306 305 304 296 294 295 297 306 304 301 300 302 301 301 301 299 298 298 298 299 299 297 296 297 295 295 295 295 295
288 288 289 289 289 289 290 292 293 294 296 298 298 298 298 299 299 298 298 299 300 298 299 300 300 301 302 301 302 303 304 305 305 305 306 306 305 305 306 308 309 303 309 308 307 304 304 305 307 307 307 308 309 309 308 306 306 305 304 299 301 300 295 294 299 299 301 298 300 301 299 301 301 299 298 298 299 298 299 298 297 295 296 295 295 295 295
286 285 286 287 287 288 288 289 290 291 294 296 297 298 299 300 300 299 298 299 299 298 299 299 299 299 300 302 303 303 303 303 304 304 304 304 304 304 303 304 307 308 307 307 307 306 306 306 306 307 308 308 308 308 307 306 305 303 302 302 301 300 295 296 296 300 299 299 300 301 301 300 300 299 299 298 299 297 298 297 295 294 295 295 296 296 294
286 285 286 287 288 287 286 287 289 291 293 296 297 298 298 300 300 298 298 297 299 299 298 297 297 298 299 300 300 301 301 302 300 300 301 301 302 302 302 302 304 305 305 306 307 308 307 307 306 307 308 308 308 307 307 306 304 303 303 301 300 299 299 297 297 301 299 299 298 297 299 296 299 300 297 297 298 298 296 295 293 294 294 294 295 295 292
287 287 288 289 289 289 289 289 289 290 292 294 295 296 298 299 299 299 296 296 297 297 297 297 297 297 298 298 299 299 299 298 296 297 299 299 301 301 302 304 305 305 305 305 304 305 307 307 307 308 308 309 308 308 307 306 305 304 303 302 300 300 300 299 301 300 299 299 300 301 299 300 299 296 297 298 298 297 295 295 294 293 294 294 294 293 291
287 286 287 288 288 288 288 288 289 290 292 293 294 295 297 298 299 299 297 296 296 296 296 296 296 297 297 296 296 296 296 296 296 297 298 298 299 300 303 303 302 303 303 304 304 302 304 304 292 294 306 306 306 306 306 306 305 304 303 303 301 300 300 300 300 300 299 300 300 299 300 297 297 296 297 298 297 297 296 294 294 293 295 294 294 293 292
286 286 286 287 288 287 287 287 288 290 292 293 293 293 294 296 298 298 297 297 296 295 294 294 295 296 295 293 292 293 294 294 295 296 297 297 299 301 300 300 300 299 300 302 302 301 302 301 293 294 303 305 305 304 301 294 303 302 302 303 303 302 301 301 300 300 300 299 298 297 294 294 297 297 296 298 298 297 296 296 293 295 295 294 293 292 290
285 286 286 287 287 287 287 287 289 290 291 291 292 291 291 293 295 297 298 297 296 295 293 293 293 293 292 291 293 295 295 295 294 295 296 298 299 299 298 297 296 297 298 299 300 300 300 296 294 299 303 303 303 302 297 292 295 303 302 302 302 301 300 300 300 298 299 299 295 298 298 298 297 297 297 298 298 297 296 295 294 294 295 294 294 293 291
285 286 287 287 287 286 286 287 288 289 289 289 290 289 290 291 293 295 296 295 295 294 293 293 292 293 293 293 293 294 294 293 293 294 294 295 296 298 296 296 295 295 296 296 298 300 297 296 299 302 301 300 300 299 295 292 294 303 302 302 303 302 300 300 300 299 298 299 298 298 300 299 299 297 297 297 297 296 294 295 294 294 295 295 295 294 293
285 285 286 287 286 286 286 286 287 287 289 290 289 288 289 291 293 294 294 294 295 293 293 293 293 293 293 293 293 293 293 293 293 294 294 294 295 295 296 297 296 295 293 289 296 297 292 291 299 302 301 300 299 299 297 294 295 300 301 301 301 301 300 299 299 299 298 299 297 294 300 299 299 298 297 297 297 296 297 296 295 294 295 295 295 294 293
285 285 286 286 286 286 286 286 286 287 288 288 288 288 289 290 290 291 291 291 292 294 293 293 293 293 293 292 292 292 293 293 294 294 294 294 293 292 292 293 294 293 291 291 292 293 292 292 295 299 300 300 299 295 297 294 297 299 299 299 299 299 299 299 299 298 297 297 296 299 300 300 298 298 297 298 298 298 297 297 297 297 297 296 295 295 294
285 286 286 286 286 286 286 286 287 287 287 287 287 287 288 289 290 289 289 289 289 290 292 292 289 292 292 292 292 293 294 293 294 293 292 291 290 289 290 291 292 291 287 289 292 292 294 295 293 291 294 297 295 290 291 294 296 297 297 298 298 298 298 298 297 297 295 295 297 300 300 300 299 299 298 299 298 298 298 298 298 297 298 297 296 296 295
285 285 285 285 286 286 286 286 286 286 287 287 287 286 287 287 288 288 287 287 287 287 288 289 289 290 292 293 292 292 291 291 292 292 292 291 290 289 287 288 289 289 286 289 291 292 292 293 293 292 287 290 290 288 291 296 296 297 297 296 296 297 298 298 297 296 296 296 295 296 300 299 300 300 298 298 298 298 298 298 298 298 298 298 298 297 296
285 285 285 285 285 286 286 286 286 286 286 287 288 287 286 286 286 286 286 285 286 286 286 286 286 287 288 290 291 289 289 289 289 290 290 290 291 291 288 287 287 287 286 287 288 289 289 288 288 287 286 287 287 288 292 294 295 296 295 295 295 298 297 297 297 297 297 295 294 295 296 296 298 300 299 298 297 297 297 298 299 299 299 299 299 298 297
285 285 285 285 285 286 285 285 285 285 286 287 287 286 286 286 286 286 285 285 284 284 285 284 284 284 285 286 288 289 288 288 288 288 287 286 286 287 287 285 286 286 286 285 286 287 287 286 286 286 287 287 287 288 293 293 293 293 294 295 296 297 298 298 298 298 297 297 295 294 293 296 297 298 298 297 295 297 297 297 298 298 297 297 296 296 296
284 284 285 284 284 285 285 286 287 287 287 286 286 285 286 286 285 286 286 285 284 284 284 284 284 284 284 284 285 286 289 288 286 287 287 286 284 284 285 284 284 285 285 285 285 285 285 284 285 286 287 288 289 295 295 294 292 294 295 297 298 298 298 298 298 296 297 295 294 295 295 295 295 296 297 297 297 297 296 294 295 296 297 297 296 296 296
284 284 284 284 284 285 285 286 286 286 285 285 284 284 285 285 285 285 285 286 285 284 284 284 284 284 284 284 283 283 283 285 286 285 285 285 285 284 284 283 283 284 284 284 284 284 284 285 285 285 286 287 289 293 295 297 297 296 295 295 295 297 296 297 296 295 295 294 295 294 293 293 295 295 294 295 296 295 295 295 296 296 296 296 295 294 293
283 283 283 283 284 284 285 285 285 284 284 284 284 284 285 285 284 284 285 285 285 285 284 283 283 284 284 284 284 284 283 283 283 283 284 283 284 284 284 283 283 283 283 283 283 283 283 284 284 284 285 285 287 288 289 290 291 291 291 291 291 291 292 293 294 294 293 293 293 294 294 295 294 294 294 294 294 293 293 294 294 294 295 295 295 296 296
283 283 283 283 283 284 283 283 283 283 284 285 285 285 285 285 284 284 283 284 284 284 284 284 283 283 284 284 284 283 283 284 282 281 283 283 283 282 282 282 282 282 282 282 282 282 282 282 283 283 283 283 284 284 285 285 286 286 286 286 286 286 287 288 288 290 291 291 292 292 292 292 293 294 293 292 291 291 291 291 291 292 292 293 293 293 293
283 282 282 282 282 282 282 282 282 282 284 284 284 285 285 284 282 282 283 283 283 283 283 283 283 283 283 283 284 283 283 283 283 282 282 282 282 282 282 281 281 281 281 280 280 280 281 281 281 282 282 282 282 282 282 282 283 283 283 283 284 284 284 285 285 285 286 286 286 286 287 288 288 287 287 288 288 289 289 290 290 289 288 289 290 291 292
281 281 281 281 282 282 283 283 282 283 283 284 285 285 284 283 282 282 282 282 282 282 282 282 282 282 282 282 282 283 283 282 282 282 282 282 282 281 281 281 281 280 280 279 279 279 279 280 280 281 281 281 281 281 280 280 280 280 281 281 281 282 282 282 282 282 283 283 284 284 284 285 285 285 285 285 286 287 287 287 288 288 288 289 289 290 290
281 281 281 281 282 282 282 282 282 283 283 283 284 284 284 283 282 282 282 282 282 281 281 281 280 282 282 282 281 282 282 282 281 281 281 281 280 280 280 280 279 279 279 278 278 278 278 279 279 279 279 279 280 280 280 279 278 278 279 279 279 279 280 279 280 280 280 281 281 282 282 283 283 283 283 284 284 285 285 285 285 286 286 286 286 287 288
Wind_Speed
10 8 7 4 2 4 4 4 7 9 9 5 7 5 5 3 6 15 5 3 4 9 8 6 9 12 12 15 17 15 12 13 12 9 10 11 13 12 10 5 7 8 9 10 11 12 13 13 14 14 14 14 13 12 11 13 13 15 15 15 15 16 16 16 16 15 14 13 12 13 13 13 13 13 13 14 13 12 12 11 10 11 11 11 11 9 8
8 8 7 6 5 3 3 8 8 13 13 13 10 8 9 11 13 11 7 10 11 14 9 7 13 13 11 15 13 12 14 17 13 11 11 11 11 10 10 9 4 8 9 8 9 11 12 15 16 15 15 15 16 16 16 16 16 16 15 16 16 16 16 16 14 14 14 13 13 13 14 14 13 13 12 12 12 13 12 11 11 10 10 10 11 12 11
7 6 7 6 8 5 7 10 9 12 12 12 11 6 10 9 11 15 16 14 15 14 6 8 13 12 11 12 13 16 16 14 11 12 12 11 9 9 9 10 6 5 7 7 9 11 13 14 15 16 15 16 15 15 14 15 16 15 16 16 16 16 17 15 13 13 13 13 14 15 14 13 12 13 12 12 12 12 12 11 12 11 11 11 10 10 11
6 5 7 11 10 4 4 10 10 10 10 8 7 6 9 7 12 11 9 9 12 13 4 8 11 11 10 14 15 14 13 8 9 11 13 11 9 8 8 9 7 3 5 6 9 10 11 12 13 12 12 12 13 15 15 15 15 14 15 15 16 16 15 14 14 14 13 14 14 15 14 14 14 13 12 12 12 12 12 12 11 11 12 12 11 10 9
8 8 5 5 1 2 7 10 12 14 10 8 5 9 8 12 13 12 11 13 9 11 6 2 8 11 12 12 10 12 12 8 8 10 11 11 8 7 8 10 9 5 4 7 8 9 9 11 13 13 12 11 13 14 15 14 12 13 14 15 15 14 14 14 14 14 13 14 15 14 14 14 13 12 12 12 12 13 14 12 11 11 12 11 11 11 11
5 2 1 0 2 1 3 5 5 9 7 10 10 8 10 10 8 7 6 8 7 6 7 9 11 11 11 8 8 4 7 8 9 9 10 11 9 7 7 7 9 7 1 6 7 9 9 9 9 9 11 12 11 10 10 9 11 12 13 12 13 13 13 14 14 13 14 14 15 15 14 13 12 13 13 13 13 11 12 13 13 12 12 13 12 13 12
5 1 2 2 1 4 2 5 5 2 2 1 6 11 12 11 9 11 12 13 12 14 10 5 6 9 13 13 12 16 12 8 10 11 9 10 8 7 5 6 6 5 3 3 5 7 8 9 9 9 9 10 9 10 11 13 13 14 13 13 12 12 13 13 13 13 14 14 15 14 14 14 14 13 13 12 13 11 10 12 13 13 14 13 12 13 13
3 3 1 3 5 5 2 5 6 2 2 2 5 10 13 13 11 10 11 14 14 10 9 8 5 7 12 13 13 13 14 9 11 9 11 11 8 7 7 7 6 5 4 5 8 9 8 9 10 11 11 10 10 11 11 12 12 12 13 13 12 11 11 12 13 13 14 14 14 14 13 13 14 15 14 14 14 11 9 9 9 10 11 11 13 14 13
3 2 2 8 6 9 2 1 0 1 1 1 1 5 10 9 4 4 5 9 7 6 7 8 8 6 8 8 12 10 10 9 9 13 13 8 7 7 7 6 6 5 4 3 4 5 6 9 10 10 10 11 11 11 12 12 13 13 12 12 12 12 12 11 12 13 14 14 13 14 15 13 13 14 13 12 11 10 12 11 12 12 12 12 11 13 14
4 6 6 4 2 3 4 4 1 3 2 3 3 0 14 12 8 2 3 6 9 10 9 10 9 8 4 6 8 10 5 3 7 8 7 5 6 5 4 4 3 3 4 3 3 6 9 10 11 9 10 11 11 11 11 11 12 11 12 12 12 12 12 12 12 12 13 14 14 12 13 15 15 13 12 11 12 11 12 12 12 12 11 7 4 6 10
1 1 2 3 3 5 2 6 5 4 4 6 5 2 11 4 2 2 1 6 8 9 10 11 8 6 4 7 9 3 7 9 7 9 8 6 4 5 6 5 5 5 5 7 8 5 6 9 8 10 12 13 12 11 10 11 11 11 12 13 13 13 13 12 12 12 12 13 14 13 12 13 14 14 13 12 11 12 12 10 10 9 9 10 9 9 10
3 2 2 5 3 4 2 3 3 2 3 2 3 4 3 3 5 4 5 6 7 10 9 8 8 8 7 9 5 6 14 14 14 10 10 8 7 6 5 4 6 6 4 4 7 8 9 10 9 10 11 12 12 11 11 11 12 12 13 13 14 12 11 11 11 11 11 12 13 15 15 14 10 10 9 10 11 10 8 9 11 10 9 9 9 8 8
5 5 4 3 5 3 3 3 4 3 3 4 5 7 1 4 8 11 7 6 8 8 7 7 7 6 8 11 15 18 16 16 18 14 5 8 8 8 4 5 4 3 5 8 10 12 11 10 9 10 10 11 11 12 12 12 14 15 13 9 8 9 11 12 12 13 12 13 14 14 14 14 13 11 10 12 11 10 10 9 9 8 9 8 8 8 9
4 2 4 4 4 3 3 5 6 2 4 4 5 2 4 4 11 12 10 9 8 8 8 8 9 11 12 13 13 15 16 14 15 14 15 12 10 7 3 6 4 4 5 6 6 6 6 10 11 11 11 13 13 13 12 14 14 9 8 9 9 9 11 12 13 13 13 13 15 14 12 11 11 10 9 11 13 13 10 10 12 12 12 11 11 9 6
2 0 3 4 6 2 5 5 8 1 1 3 5 9 11 11 12 12 9 6 8 7 9 9 11 13 14 13 14 14 14 13 13 13 15 14 12 3 2 2 4 4 5 7 10 11 9 10 11 12 13 13 11 10 14 15 10 11 11 9 9 9 10 12 13 13 13 15 13 11 11 11 11 10 10 11 12 12 12 11 12 13 12 11 10 8 7
6 3 4 2 4 13 1 3 5 7 9 10 12 9 13 11 8 7 4 4 5 7 8 11 13 12 13 15 11 12 12 11 10 10 13 14 11 3 4 1 2 5 5 7 7 6 7 8 9 10 13 13 12 13 15 9 11 13 14 14 13 11 11 12 13 13 14 15 15 12 12 10 11 12 12 13 13 12 12 12 11 11 10 10 10 11 10
1 5 8 9 12 12 7 2 10 13 16 13 12 11 10 8 7 4 4 5 5 7 8 10 11 13 11 12 12 11 13 12 11 11 13 13 13 8 9 8 9 7 7 7 5 5 8 10 10 11 11 13 12 16 11 11 12 10 9 9 10 10 11 10 11 12 13 13 13 12 12 12 12 12 11 10 11 10 12 11 11 12 11 11 12 11 10
5 12 16 16 12 11 15 3 8 12 13 12 11 10 9 8 7 5 6 8 8 8 7 9 10 10 12 12 13 11 10 11 11 9 10 13 11 12 5 1 0 1 0 1 2 3 4 9 11 11 11 11 15 16 9 12 14 14 13 13 12 11 9 10 12 12 13 12 13 11 11 11 13 14 15 13 11 10 10 10 11 11 10 10 10 9 9
7 9 2 3 11 13 16 8 9 9 9 10 9 9 9 9 8 7 7 7 9 9 8 9 10 10 9 11 12 10 9 9 10 9 9 9 10 8 11 3 6 4 3 2 1 1 2 4 7 7 9 10 10 5 10 7 8 9 10 11 11 12 16 17 16 15 14 11 10 10 10 9 10 12 13 13 13 14 13 11 10 9 9 9 9 9 10
6 7 15 15 12 15 13 5 5 10 12 12 10 7 8 8 8 7 7 7 9 7 8 8 8 6 7 9 10 8 7 7 9 9 8 7 7 7 4 8 2 8 3 1 1 1 1 2 3 6 8 9 7 7 6 7 8 10 11 13 14 14 15 12 10 12 14 18 16 12 12 12 11 11 11 13 14 13 12 11 10 9 9 9 9 10 10
11 13 9 7 17 11 5 10 10 9 11 13 12 10 10 10 10 8 7 5 9 8 8 7 6 3 6 7 7 7 6 7 8 9 9 7 5 2 5 6 8 3 4 5 3 3 2 1 1 2 3 3 4 7 7 8 10 11 11 12 12 11 11 11 12 12 13 13 12 11 10 10 11 14 16 13 12 10 7 12 16 17 15 13 13 11 10
9 5 12 16 11 12 17 15 15 12 12 11 13 12 11 11 12 12 11 10 3 7 7 5 6 2 4 5 4 4 4 5 7 8 8 8 4 3 3 3 3 5 5 4 6 5 4 2 2 2 1 2 3 5 7 8 11 12 11 11 11 12 11 11 11 10 9 10 9 9 8 8 8 5 8 8 9 13 11 12 15 14 15 14 13 12 11
10 15 17 14 13 12 12 12 15 13 8 7 10 12 11 12 11 11 11 12 13 12 6 0 5 3 6 6 3 4 4 6 6 6 7 7 6 4 2 4 4 5 4 4 6 5 5 4 4 3 2 3 4 5 7 9 11 11 12 11 10 9 9 9 11 12 11 10 8 8 8 8 7 9 7 7 9 11 11 14 14 13 12 12 14 13 12
13 11 13 14 12 11 13 14 14 13 8 9 12 10 8 11 11 11 11 10 11 12 11 9 3 5 7 8 5 5 6 6 7 7 5 5 5 4 5 5 4 4 4 4 5 5 3 4 4 4 4 3 4 5 6 7 7 8 8 9 9 10 12 10 8 5 6 7 9 9 8 9 9 10 10 9 6 7 10 14 13 14 14 14 15 14 12
12 15 15 15 16 15 11 8 11 8 11 11 11 12 11 12 12 8 10 11 10 10 10 11 10 8 9 8 9 8 5 4 5 6 5 4 5 6 6 6 5 4 3 2 3 4 5 4 5 5 5 4 2 3 4 5 7 9 9 10 11 10 8 8 9 9 9 8 6 8 9 8 8 8 10 10 10 7 6 7 11 14 13 13 15 15 13
13 15 16 16 11 9 10 14 12 13 17 14 12 11 10 10 9 10 9 8 9 9 9 9 11 11 9 11 9 3 2 4 5 5 5 6 6 6 7 5 4 3 2 3 2 3 3 4 5 4 4 4 5 5 6 6 7 8 8 9 10 10 10 11 12 10 10 11 11 9 8 10 10 10 7 9 10 11 11 8 7 7 7 9 13 14 12
13 13 16 16 15 18 14 12 11 17 16 14 10 12 11 9 9 7 5 5 6 7 9 9 9 10 10 10 10 8 8 7 8 8 7 8 8 6 4 3 4 4 6 6 5 4 2 2 2 2 2 1 1 3 4 6 7 6 6 7 6 7 12 11 10 10 10 10 11 11 9 8 10 9 9 8 9 11 12 12 10 10 8 3 4 12 10
13 15 13 12 13 15 16 18 14 12 10 9 12 11 11 9 9 9 10 12 12 12 10 10 10 12 12 11 9 10 11 12 10 10 11 9 7 6 5 5 5 4 3 4 4 4 5 5 4 4 4 3 4 5 5 6 7 8 7 7 8 7 8 8 7 9 10 10 11 11 11 8 8 8 9 9 9 7 6 7 9 9 6 5 6 4 10
17 16 16 12 10 12 13 11 11 14 16 15 14 11 9 13 12 10 9 9 8 8 9 10 9 8 7 8 8 10 10 10 11 10 7 7 7 6 5 4 3 4 4 4 5 5 4 4 4 4 2 1 4 6 6 6 7 7 8 9 9 9 8 7 5 4 4 6 7 8 8 8 8 9 8 7 7 6 6 7 8 7 7 7 7 5 4
17 16 15 14 16 14 15 15 14 14 15 15 16 16 11 10 11 10 10 9 8 7 6 4 4 7 7 8 9 8 8 8 8 7 8 7 7 7 6 4 3 5 6 7 6 5 4 3 3 3 2 4 4 2 5 7 6 7 8 8 8 8 8 8 7 8 8 7 9 11 10 9 8 8 9 8 8 8 8 8 9 9 9 8 7 9 10
17 15 13 12 18 20 18 15 15 14 14 16 16 14 15 14 10 10 11 10 8 7 8 7 7 8 9 8 7 6 5 6 7 8 8 8 8 8 8 8 7 6 5 5 5 5 4 5 5 4 3 4 4 3 3 6 7 7 6 6 5 6 11 14 10 9 8 8 9 9 8 8 8 9 8 9 8 8 7 7 8 8 7 8 8 9 8
17 13 13 14 15 18 19 16 18 17 16 14 16 17 14 12 11 10 9 9 8 5 6 9 9 8 8 7 5 4 6 6 7 9 9 8 8 8 8 7 6 6 6 6 5 4 3 4 6 4 4 5 5 5 5 4 4 7 6 6 8 5 7 13 9 9 8 7 8 8 8 9 8 8 8 8 8 8 8 8 8 8 8 9 8 7 7
20 22 23 22 20 18 18 17 15 19 18 16 14 12 11 7 8 10 7 5 8 6 7 6 5 5 4 4 7 7 6 5 5 8 8 9 8 7 7 6 6 7 7 7 7 6 6 6 5 4 5 7 8 7 6 5 4 6 6 6 6 7 6 8 10 9 8 8 7 7 7 7 8 7 7 7 7 6 7 7 7 7 7 7 7 7 9
13 12 13 14 13 13 16 18 16 15 16 15 13 11 10 10 6 6 7 7 7 7 7 6 5 4 3 6 6 7 8 9 8 8 7 6 7 7 6 5 5 7 7 7 7 7 6 6 5 4 4 5 7 7 8 7 4 4 6 6 6 6 6 6 8 8 8 7 7 7 7 6 7 7 7 7 7 6 7 7 6 7 7 6 6 7 9
10 10 10 11 10 10 11 11 13 14 14 15 16 14 12 9 8 8 8 7 6 6 6 5 5 4 5 6 7 7 7 6 4 5 5 5 5 5 4 6 7 7 9 9 10 9 7 6 5 5 6 6 5 4 5 6 7 6 6 6 5 5 6 6 6 7 8 8 7 7 6 7 6 6 6 6 5 6 6 6 7 7 7 7 6 6 7
13 13 11 11 10 11 12 11 9 11 12 12 13 13 13 11 10 10 10 8 6 7 6 5 5 5 7 7 7 7 7 6 6 6 6 6 5 4 7 10 9 9 8 9 10 10 9 6 6 8 6 5 4 3 3 5 5 6 7 7 6 6 6 6 6 7 6 7 7 6 6 6 7 7 7 6 6 5 6 6 6 6 6 6 6 7 6
12 12 13 12 11 13 13 12 12 12 12 12 12 14 15 16 13 9 8 8 8 7 8 5 5 6 5 5 3 4 5 6 6 6 6 6 5 8 10 10 11 10 8 9 9 9 7 6 7 9 6 5 5 5 5 8 6 5 5 6 6 5 6 6 6 6 6 6 6 6 7 7 6 5 6 6 6 6 6 6 6 5 5 6 6 7 7
13 12 13 13 13 13 13 12 12 11 12 14 14 12 12 13 14 11 7 8 8 7 7 5 3 4 4 3 6 8 7 7 7 7 7 7 7 10 11 11 9 8 8 6 8 7 5 6 7 6 5 5 5 5 6 9 8 6 5 5 6 6 5 6 6 6 6 6 6 7 7 6 6 6 5 5 5 6 6 6 6 6 5 6 6 7 7
15 13 12 13 12 11 12 12 12 11 12 13 13 13 13 14 13 11 8 8 7 8 7 5 3 5 9 9 7 7 8 7 6 6 6 6 5 8 7 6 5 3 3 6 6 5 6 7 4 5 5 4 4 5 6 9 8 6 6 6 6 6 6 6 6 6 7 7 7 6 7 6 6 6 6 5 6 6 6 6 7 7 6 6 6 7 6
14 15 16 15 14 13 13 13 12 13 12 10 12 13 14 15 14 12 11 11 9 8 8 6 7 8 7 7 7 7 6 6 6 7 6 5 6 6 4 7 10 9 8 8 4 5 7 9 7 5 5 5 4 4 5 7 8 6 6 5 5 5 5 5 5 5 5 5 6 6 6 6 6 6 6 6 6 6 5 6 6 6 6 6 5 6 6
14 15 15 14 14 14 14 14 13 13 11 11 12 12 12 12 12 13 15 14 13 9 6 7 7 6 6 4 4 4 4 6 7 8 7 9 10 8 8 8 10 10 11 9 7 6 9 8 7 7 6 5 4 4 4 5 6 5 5 5 5 5 5 5 5 6 6 6 5 4 5 6 6 6 6 6 5 5 5 5 5 5 5 5 5 5 5
15 15 15 15 14 14 14 13 12 12 12 11 12 12 13 14 13 14 13 12 12 10 7 8 8 6 4 3 3 5 7 7 6 9 11 11 8 7 9 8 10 9 14 12 9 9 9 9 9 6 5 4 4 5 5 4 4 4 4 6 6 6 5 4 4 5 5 5 4 5 5 5 5 5 5 5 5 5 5 4 4 3 3 4 5 5 5
15 15 14 14 14 15 14 14 13 12 11 10 11 11 11 13 15 14 13 13 13 12 12 10 10 10 9 8 7 9 8 8 7 5 6 7 9 9 7 6 8 9 14 9 9 8 9 8 8 7 5 6 5 5 6 4 4 4 5 5 4 4 6 5 4 4 5 6 5 4 5 5 5 5 5 5 5 5 5 5 5 4 4 4 4 4 5
13 12 12 13 14 13 13 12 13 13 13 12 11 11 11 10 12 13 13 13 13 14 13 12 11 11 10 9 9 9 9 9 9 7 5 5 6 9 11 9 8 9 13 9 8 9 9 9 8 10 9 6 7 7 5 4 4 5 5 5 4 5 5 5 4 4 4 5 5 5 5 4 4 4 4 4 4 4 4 4 4 4 4 4 4 4 5
12 11 12 13 13 13 13 13 13 14 12 11 9 11 12 12 11 10 13 13 13 13 13 13 12 11 10 9 8 7 7 7 8 8 8 8 8 9 12 11 10 9 11 11 8 9 9 10 12 14 11 10 9 8 6 5 4 4 4 4 3 5 5 4 3 3 3 3 4 4 4 4 3 3 3 3 3 4 5 5 5 5 5 5 5 5 5
11 11 11 12 13 13 12 12 11 11 11 10 9 10 12 11 11 10 10 12 13 13 12 11 11 12 12 10 8 6 4 7 9 10 9 7 6 5 7 8 8 8 12 14 10 11 10 15 17 15 15 14 12 9 7 6 5 6 6 6 5 5 5 4 2 2 3 2 3 4 4 4 4 3 3 4 4 4 3 3 3 4 5 5 6 6 6
10 10 11 11 11 12 13 11 10 11 13 13 14 12 12 12 10 8 9 9 10 11 11 11 11 11 11 12 11 9 8 6 6 9 9 7 6 6 7 10 10 12 11 10 10 10 11 12 14 17 16 15 14 9 9 8 8 8 7 7 6 6 4 3 2 2 3 3 3 2 3 4 4 4 4 4 4 4 4 4 4 4 4 4 4 5 5
9 10 10 10 10 11 11 11 12 11 12 12 11 10 9 9 9 8 8 9 9 10 11 12 11 11 12 12 11 11 10 8 5 7 9 7 6 6 8 8 10 11 11 10 13 14 21 20 20 19 18 15 11 9 9 9 9 8 8 8 8 7 7 7 6 4 3 3 3 3 3 3 3 2 2 2 1 2 3 3 3 3 3 4 4 4 4
9 9 8 8 9 10 10 10 11 11 10 10 10 9 10 9 8 9 10 9 9 9 10 11 12 12 11 12 11 10 9 10 9 6 8 7 7 8 8 10 14 14 11 9 10 10 16 20 19 19 18 14 11 10 9 8 8 8 8 8 6 7 7 7 7 6 7 7 6 6 5 5 4 4 3 3 3 2 2 2 3 4 4 5 5 5 5
8 8 8 8 8 8 9 8 9 10 9 9 9 9 9 9 9 10 9 9 8 7 7 8 9 10 9 9 10 10 10 9 9 7 7 9 10 10 10 10 10 13 13 10 10 9 12 17 17 18 14 10 10 9 9 9 10 10 9 9 9 8 8 8 8 10 9 8 8 8 8 7 6 7 6 5 5 6 5 5 5 4 2 1 3 3 3
7 6 7 7 7 7 7 7 7 7 8 9 8 8 8 8 7 7 8 9 7 8 8 8 7 9 9 10 9 10 10 10 9 10 9 9 10 11 13 11 11 11 11 10 10 10 9 10 10 11 12 11 10 10 10 10 9 10 10 9 9 8 8 9 9 9 9 8 7 8 8 8 7 7 6 6 7 7 6 7 6 6 5 5 4 3 2
6 5 6 6 6 6 7 7 7 7 8 8 7 7 7 7 6 7 8 11 9 8 8 9 9 9 8 8 9 9 8 10 9 10 9 10 10 9 11 13 11 12 12 11 10 10 9 9 10 12 12 10 9 8 10 12 10 9 9 9 9 9 9 10 9 8 8 8 8 7 8 8 7 7 8 8 7 7 6 6 6 6 6 6 6 6 6
Wind_Direction
263 272 268 235 227 232 243 252 258 276 269 246 212 229 233 202 190 233 247 116 214 265 240 233 257 261 271 280 284 284 286 290 292 284 276 273 269 278 284 247 219 228 223 214 208 199 197 192 192 191 186 185 186 189 187 183 180 183 180 179 181 183 184 187 188 183 178 176 173 171 171 174 177 179 180 174 169 166 169 169 170 171 168 162 156 156 151
300 285 273 275 235 236 224 231 231 248 253 248 225 235 236 225 248 264 308 288 267 257 256 234 259 266 265 272 281 290 290 284 287 283 270 260 262 271 280 285 229 212 214 203 201 200 194 191 190 188 188 187 186 184 185 184 184 182 175 181 182 183 187 189 183 177 175 172 172 170 172 177 179 177 175 171 166 164 169 168 165 162 163 164 162 159 156
276 269 281 285 256 229 251 247 210 228 242 256 257 254 260 258 269 265 267 269 272 268 229 239 256 263 265 280 283 275 277 285 282 270 267 263 263 266 276 280 262 202 203 197 195 195 198 196 193 191 190 188 186 186 183 181 183 180 178 181 182 185 187 184 177 173 172 173 171 174 176 176 176 175 174 169 168 166 164 165 165 164 164 164 162 160 160
268 237 226 242 259 290 259 274 262 237 234 243 254 239 238 221 234 244 253 257 254 265 223 233 256 262 258 256 259 269 272 268 262 261 265 269 270 277 276 277 281 204 183 193 197 203 196 193 193 192 190 186 182 185 181 183 182 176 179 182 185 186 184 176 174 174 173 171 173 175 173 177 176 175 170 168 167 167 164 165 170 166 167 170 163 157 159
250 262 254 256 149 289 309 268 249 234 209 212 231 241 230 212 209 226 229 238 239 251 255 240 260 247 250 256 255 263 273 261 245 253 264 270 274 278 287 290 288 269 184 184 192 197 195 192 191 190 183 182 190 186 182 183 172 174 182 184 184 183 179 176 175 173 170 171 174 173 176 175 173 170 169 171 170 169 172 168 159 168 173 163 163 163 164
281 117 282 155 98 94 224 234 202 166 192 194 207 233 233 235 189 223 217 250 276 283 271 233 249 267 265 264 279 255 247 283 286 266 261 266 271 279 279 279 286 290 220 163 182 187 188 189 185 178 180 185 184 177 170 159 170 179 182 184 183 182 178 177 174 171 170 171 174 175 173 172 171 172 171 176 176 181 173 162 167 170 170 174 171 167 168
275 347 100 31 355 251 246 298 299 244 241 213 237 255 259 260 239 245 263 260 260 256 260 277 279 281 286 292 286 283 259 228 245 254 263 265 255 254 265 281 285 285 254 167 162 168 172 168 167 165 177 177 169 165 165 169 177 178 181 181 184 181 179 176 171 170 171 173 173 173 173 172 173 175 176 175 175 175 175 169 166 172 176 179 179 170 169
314 331 31 355 239 242 197 224 264 260 87 263 248 268 260 252 247 232 243 251 255 271 294 288 273 270 286 291 281 260 263 228 225 230 244 247 247 238 229 234 249 244 226 191 181 184 177 163 166 169 170 165 163 167 166 170 175 180 181 182 181 176 176 175 174 172 171 172 171 170 174 176 174 176 178 178 177 171 166 169 175 169 177 189 177 171 170
237 209 183 242 304 315 359 57 45 159 183 229 204 284 280 259 234 202 237 258 263 281 292 301 297 299 295 294 286 272 251 245 222 224 238 228 241 239 249 222 220 224 217 229 217 171 166 166 164 169 162 162 165 165 171 175 175 180 179 180 178 175 176 174 172 171 170 169 173 174 171 174 181 179 178 178 172 166 167 173 174 176 182 189 187 176 167
200 273 299 313 324 273 272 232 238 198 198 137 128 30 285 278 256 225 247 290 314 313 303 304 308 315 318 284 268 263 298 317 283 281 270 262 248 257 262 278 284 259 214 189 187 185 173 173 172 162 157 158 161 168 173 173 173 175 177 179 176 172 174 172 172 170 171 169 170 174 174 178 181 185 180 171 166 168 174 175 181 184 177 168 167 175 165
31 245 246 258 263 248 214 221 229 230 194 161 128 144 265 322 47 78 263 295 288 288 297 301 314 328 294 248 247 314 352 326 316 303 300 289 263 239 236 235 250 234 217 188 180 182 176 173 175 162 159 159 161 168 169 170 172 176 181 180 177 177 176 171 167 168 170 171 168 171 183 187 182 180 177 173 168 172 179 172 171 162 156 157 167 174 178
246 219 275 270 218 259 258 237 268 242 176 144 142 270 271 282 300 310 302 300 306 301 296 290 287 269 254 257 267 338 320 313 297 294 294 290 275 265 236 229 236 239 209 173 163 170 180 186 171 162 159 160 162 163 169 167 176 185 189 191 187 176 162 158 162 165 168 171 176 177 181 180 181 179 164 156 166 171 153 160 166 166 160 160 158 164 162
240 209 269 291 296 312 334 261 279 269 208 204 205 237 256 295 297 290 271 277 300 284 276 281 280 251 248 279 298 303 303 307 303 299 276 255 257 258 295 306 281 211 185 189 189 187 186 169 161 161 158 160 166 172 173 178 186 191 186 176 172 172 164 161 163 167 170 173 178 186 183 178 173 168 165 166 164 158 161 165 151 133 128 133 142 160 179
291 219 212 254 266 228 207 246 260 264 272 246 251 222 190 260 276 272 267 249 237 256 264 279 273 280 283 280 283 288 291 288 286 290 293 288 268 235 247 273 274 208 181 191 206 209 192 166 162 162 168 175 181 178 178 188 194 170 152 169 170 167 168 169 168 167 171 178 180 183 184 172 164 163 165 162 163 166 169 159 152 152 155 154 160 165 165
254 346 283 312 352 275 140 307 316 194 137 243 267 293 285 265 260 266 259 228 249 245 277 276 281 288 292 290 289 287 286 288 291 297 292 282 265 218 126 174 255 198 190 197 197 192 179 176 169 171 172 180 185 184 191 192 156 144 162 163 166 170 171 173 172 170 170 175 183 184 178 168 157 145 152 161 167 167 163 156 157 159 160 157 151 145 153
315 332 333 320 229 283 307 35 307 280 246 271 280 285 284 291 297 291 269 235 239 264 276 296 298 295 298 298 294 292 291 294 298 293 284 273 263 223 219 172 211 208 210 205 207 182 173 174 175 175 179 181 185 189 204 168 162 171 171 167 163 169 180 184 175 170 172 177 183 185 176 153 141 143 161 168 167 169 165 159 158 158 158 154 151 159 167
308 288 273 250 272 277 279 157 270 270 281 285 281 276 277 299 307 343 309 289 279 273 291 293 291 296 295 292 295 297 298 303 304 298 289 282 275 234 179 181 220 217 198 205 199 180 177 176 179 182 186 187 185 201 189 147 173 171 164 159 162 168 180 180 172 172 173 179 186 184 171 154 145 151 155 159 163 172 166 164 163 163 165 161 166 171 164
252 259 245 270 291 294 295 244 226 266 285 294 298 298 306 313 313 315 293 297 289 294 299 298 286 276 291 300 304 303 300 303 306 308 304 298 288 284 231 95 201 189 57 279 240 168 188 180 180 185 190 186 193 209 172 173 172 170 160 156 162 160 143 153 176 174 177 182 183 181 170 164 159 158 158 161 162 166 168 173 173 164 157 162 169 170 160
352 303 337 325 305 312 310 319 290 277 277 300 309 313 313 312 313 299 282 267 281 288 289 273 271 282 306 305 301 301 310 314 318 323 313 300 295 300 301 231 145 58 22 14 31 43 176 188 178 178 187 200 203 160 181 174 159 145 145 149 157 159 169 181 178 172 172 179 176 171 171 159 158 162 162 164 167 173 177 169 158 148 149 160 172 159 163
279 269 301 307 313 306 304 305 302 334 324 318 325 318 302 299 291 281 280 300 301 297 278 260 261 299 306 300 296 304 313 316 322 319 312 291 307 316 325 319 326 117 107 29 34 111 167 212 173 168 175 187 177 164 155 145 138 140 149 163 167 173 174 174 173 172 172 170 173 180 174 160 156 160 166 166 165 171 174 158 137 134 151 167 161 170 182
290 285 275 316 326 297 286 328 328 335 331 320 326 327 321 315 311 316 313 297 295 290 269 285 275 298 330 316 296 305 315 325 320 321 311 298 299 323 7 7 357 349 126 117 96 89 95 72 105 142 167 147 144 145 141 135 140 146 158 163 164 166 168 167 174 177 177 181 181 172 166 163 165 166 167 168 167 168 142 145 161 166 176 179 178 172 157
322 328 315 329 343 325 326 329 327 333 331 324 321 327 331 330 323 324 325 319 279 245 267 274 261 332 348 321 298 305 329 329 325 318 313 306 314 351 18 45 64 63 42 77 97 99 94 87 93 90 78 94 121 136 138 143 148 157 161 163 164 166 165 173 174 175 175 174 167 162 156 147 132 80 42 108 152 156 156 172 168 165 163 172 171 164 167
306 308 310 318 310 285 277 302 316 320 323 312 319 323 320 317 319 319 323 324 334 337 343 131 293 327 47 352 336 9 352 347 333 329 325 322 328 343 360 62 47 57 69 88 94 92 94 90 95 96 111 142 146 153 157 160 161 159 161 163 165 154 160 176 177 180 175 160 155 145 136 135 133 131 117 66 85 116 132 146 151 150 157 128 144 167 167
288 296 300 310 307 292 297 315 316 320 333 329 324 314 309 303 310 318 321 326 336 333 338 353 6 321 40 33 22 20 10 355 349 336 334 320 335 356 14 27 28 52 65 75 91 103 98 101 107 117 144 170 168 164 167 168 158 149 151 150 154 166 179 171 162 129 123 133 144 142 142 143 144 148 135 121 75 52 114 137 135 143 150 147 153 158 163
316 312 311 307 300 286 287 307 314 319 334 335 320 314 316 306 304 313 316 327 332 331 334 343 347 358 20 28 31 8 4 355 342 315 329 351 11 24 24 33 45 61 64 86 108 124 138 140 141 148 158 170 149 135 130 124 123 131 140 145 154 161 150 119 117 123 131 128 140 140 140 139 146 148 144 139 131 115 33 75 129 146 145 144 152 158 154
327 326 316 301 269 290 327 342 339 340 331 331 326 316 316 310 311 315 316 323 321 321 325 347 351 349 3 12 13 317 335 48 3 357 6 5 8 18 18 11 9 25 47 70 78 107 140 156 162 170 180 182 170 159 145 132 133 139 147 156 157 154 149 150 149 156 156 152 150 153 154 155 157 158 160 153 148 139 136 126 71 52 69 135 154 152 150
334 331 335 336 346 340 341 347 313 315 318 318 321 317 318 321 327 312 296 307 317 334 342 340 347 353 357 5 356 7 25 19 28 28 22 7 11 6 353 353 12 30 35 29 20 21 66 91 95 99 118 179 124 94 119 132 133 133 127 130 134 146 149 151 158 157 155 153 146 142 148 164 158 155 148 145 146 152 156 152 153 157 162 114 137 154 149
337 342 354 340 319 322 318 316 311 304 306 322 328 313 305 323 332 345 359 355 350 347 350 353 1 5 357 349 353 5 19 26 20 14 13 11 0 354 359 6 21 21 40 65 59 35 40 54 58 67 54 61 108 125 134 139 140 140 132 123 123 134 153 157 154 163 158 156 149 146 148 157 154 141 140 141 150 154 136 123 133 137 121 131 138 164 153
343 338 334 324 316 309 306 304 327 345 344 343 343 334 341 350 344 353 356 354 343 349 357 348 347 7 354 341 0 12 19 20 19 10 6 1 3 5 3 13 31 31 30 24 29 38 57 66 78 71 51 33 118 126 129 127 125 124 126 136 146 151 149 139 126 98 99 115 117 119 120 127 134 129 127 122 124 123 127 131 134 129 133 125 111 84 73
332 333 326 328 329 333 345 351 342 336 341 342 346 339 342 3 355 349 348 348 350 355 344 327 334 353 1 9 6 10 17 15 10 8 8 6 4 358 355 351 27 32 28 27 16 8 25 33 47 56 13 27 23 60 110 106 109 122 129 138 141 147 145 127 120 126 122 117 115 116 122 130 130 128 130 136 140 140 139 143 142 142 143 150 152 153 162
325 322 320 329 344 346 351 345 339 340 342 344 340 335 337 346 351 352 344 337 345 355 349 2 9 9 10 360 335 346 9 9 11 9 12 13 9 7 8 22 37 21 14 2 359 5 23 40 43 35 23 57 60 44 65 97 102 95 100 97 90 105 121 125 129 131 128 127 128 125 125 124 129 128 133 135 135 138 140 138 142 143 145 150 159 167 166
324 327 338 352 351 342 340 346 344 340 336 335 338 337 331 331 327 334 333 337 331 317 350 11 11 3 354 326 307 1 17 16 16 16 12 14 15 10 8 15 29 27 19 8 6 8 30 57 55 43 60 60 60 54 68 66 88 107 106 113 115 121 117 117 110 111 119 121 123 123 130 131 129 127 128 139 147 150 147 147 149 150 153 159 166 164 148
345 344 349 346 345 345 338 335 342 331 331 330 325 317 311 305 321 323 314 328 332 338 19 5 346 341 334 344 13 17 8 14 29 24 14 8 5 8 10 12 28 37 24 9 0 7 19 43 48 42 71 92 87 63 43 58 81 103 111 121 120 123 136 124 123 118 113 116 119 125 128 124 128 134 140 138 138 138 141 143 143 147 157 165 165 159 165
339 326 313 316 324 326 325 319 323 322 322 323 321 320 316 313 309 319 335 355 346 342 2 335 318 312 356 23 22 22 19 27 16 359 354 354 359 358 1 15 43 53 41 18 10 8 11 22 27 45 54 76 87 101 109 104 88 97 109 109 115 124 113 116 121 114 116 110 109 108 112 118 130 134 135 140 142 145 143 142 144 149 149 155 159 161 168
324 313 310 311 313 313 313 309 310 316 316 324 328 324 320 316 324 328 334 358 347 309 307 315 317 335 25 27 26 22 30 30 352 340 342 349 353 358 356 19 28 36 40 30 16 4 2 13 31 55 55 51 52 79 102 113 118 114 111 112 114 110 112 115 113 119 121 125 127 128 126 127 124 113 120 128 132 127 129 136 145 151 153 155 152 148 163
335 331 333 330 327 329 329 324 318 315 315 320 324 320 314 312 319 327 336 329 315 320 322 328 326 9 28 18 13 9 7 360 357 352 352 356 343 344 30 36 31 28 22 23 15 356 341 3 31 61 73 76 80 73 91 103 108 110 117 115 113 104 101 95 96 96 99 113 114 114 122 116 116 120 131 126 128 133 133 137 152 161 157 150 145 149 147
340 332 330 329 332 336 336 335 333 331 329 327 328 334 331 329 328 318 319 334 339 333 314 327 0 17 2 358 346 347 15 14 3 360 349 349 355 37 42 36 31 20 17 21 349 344 334 343 7 51 59 75 69 70 70 91 98 96 98 98 97 97 101 95 93 100 100 96 100 107 106 108 112 119 130 138 145 145 149 151 154 154 149 155 153 152 153
328 335 335 335 336 338 339 335 331 331 334 337 341 338 335 329 322 317 330 335 325 327 311 323 343 337 338 21 36 26 8 6 13 9 9 15 15 46 39 40 24 17 16 347 320 326 321 326 353 41 48 62 66 73 73 87 95 94 92 96 102 99 96 103 104 106 109 108 110 120 126 130 133 139 141 141 144 147 153 152 156 162 158 161 164 167 169
339 341 342 341 338 340 338 338 340 344 346 347 341 335 337 336 328 323 344 343 335 330 327 332 317 17 21 29 31 20 10 359 3 13 19 17 15 57 72 65 51 20 310 295 300 327 342 346 10 34 50 49 65 67 81 77 73 81 89 102 108 117 121 117 118 121 122 130 136 137 134 137 139 138 145 150 145 150 154 157 157 164 169 170 167 170 167
340 343 342 342 341 342 343 344 345 345 343 348 350 347 340 345 344 347 348 350 351 346 344 350 35 37 25 35 39 32 2 5 8 22 16 18 36 31 18 25 15 1 350 333 341 19 12 16 25 34 26 27 39 57 58 81 86 83 86 89 92 95 95 104 110 114 117 118 125 129 128 131 133 137 142 142 144 150 154 156 162 169 166 167 164 156 155
342 341 341 345 344 344 345 345 344 343 342 349 356 354 349 348 347 4 1 346 334 340 1 22 37 38 40 39 43 32 25 24 31 31 26 41 35 22 37 14 350 350 351 342 343 15 37 41 34 33 25 35 45 53 62 73 80 88 93 97 100 105 110 112 115 120 126 125 123 123 125 128 128 134 141 146 151 157 159 164 162 162 161 160 156 150 157
345 343 344 346 347 347 346 343 340 342 345 349 352 357 358 353 9 14 352 341 336 342 7 27 30 32 19 19 28 32 33 21 31 45 49 54 40 22 24 2 345 345 344 343 354 14 27 33 30 30 17 40 61 57 70 74 81 89 87 85 94 92 87 80 104 113 111 113 120 121 119 129 135 138 146 148 150 155 156 157 161 155 155 148 156 162 163
348 349 348 347 347 348 348 347 347 343 338 346 354 354 357 8 11 6 358 350 352 351 360 10 15 21 25 23 33 39 24 7 16 27 62 73 67 58 40 327 332 347 350 356 6 22 18 11 12 24 24 64 75 84 74 70 77 87 96 90 88 96 107 102 104 113 116 120 121 123 129 137 136 140 148 157 159 158 157 163 172 175 166 162 163 164 178
350 352 351 349 349 348 347 347 349 349 350 349 355 355 355 9 27 12 358 358 356 0 2 2 8 14 15 15 33 37 25 18 16 3 23 21 28 33 24 3 349 349 3 10 16 22 15 5 359 348 356 46 75 75 74 84 84 82 79 89 97 92 95 102 107 105 113 125 130 134 134 136 137 142 145 146 146 155 159 163 174 178 177 167 171 176 183
352 352 352 350 349 352 353 352 354 353 347 340 348 0 6 7 14 26 12 1 2 359 3 5 6 7 10 11 19 30 40 33 29 21 33 17 22 8 356 349 355 4 9 13 27 23 17 7 356 1 13 19 41 53 60 56 60 68 84 84 86 93 100 102 115 125 121 107 118 128 124 126 132 133 136 143 153 165 177 182 184 181 175 182 177 182 190
351 350 352 353 356 356 349 347 348 350 353 356 1 9 10 5 4 14 28 14 6 5 4 4 8 9 10 9 8 2 24 47 46 40 47 42 38 337 338 349 354 3 17 25 30 20 13 4 12 17 19 25 31 43 47 46 52 54 55 56 56 54 61 65 60 72 79 94 116 124 130 135 133 152 158 166 177 174 184 183 182 185 188 188 192 195 196
351 351 355 355 350 350 346 346 347 356 5 11 14 7 359 360 359 4 14 21 15 6 5 6 11 10 12 15 13 10 4 6 53 42 28 19 18 14 8 6 12 14 26 33 32 24 15 14 19 23 26 30 36 37 32 34 32 37 40 43 39 45 39 49 65 82 97 103 115 121 136 142 150 150 160 159 156 170 170 174 194 200 193 189 194 190 189
351 350 352 352 350 351 350 353 1 8 11 11 4 359 353 351 357 360 9 23 22 14 11 10 9 11 13 13 14 16 12 4 14 27 20 9 8 16 22 24 18 17 26 36 35 26 22 23 26 29 30 33 37 37 34 36 36 34 35 33 33 26 23 26 26 28 55 73 84 97 97 86 76 81 88 94 127 172 183 185 195 203 199 196 205 205 199
355 349 346 346 349 356 1 358 360 5 8 359 358 356 354 350 351 2 7 4 17 27 18 10 13 13 12 12 11 11 12 19 34 15 355 8 17 24 25 23 22 23 28 32 32 30 23 24 26 30 33 34 37 36 39 37 40 42 41 39 37 34 33 33 27 25 37 33 30 36 47 62 72 74 76 76 78 84 127 144 158 180 191 198 196 203 210
351 352 354 356 355 356 358 360 3 357 350 354 358 352 353 358 11 7 1 358 1 10 29 26 16 12 12 11 13 9 7 9 11 7 5 12 19 25 26 27 26 25 28 31 31 30 21 23 27 28 32 35 32 32 32 33 36 34 34 31 31 31 27 34 43 41 39 39 35 33 34 33 30 33 36 40 34 32 25 15 13 24 36 179 181 183 181
349 355 355 350 350 349 351 360 355 349 344 345 351 352 356 8 6 359 3 357 355 3 9 14 23 21 17 14 11 10 8 7 9 12 12 11 15 19 20 22 25 24 23 24 27 24 21 23 25 27 31 32 31 31 32 29 30 32 30 31 28 26 25 28 30 33 31 29 30 35 36 34 30 33 34 33 33 35 29 25 21 12 8 8 17 39 55
342 353 350 347 346 346 351 356 357 353 348 343 343 352 3 2 5 7 7 3 7 10 4 8 14 11 17 21 14 8 5 9 13 14 15 15 18 19 18 20 22 21 23 25 24 24 25 23 26 28 31 31 27 27 30 31 35 34 29 27 26 25 28 28 24 25 26 22 25 28 32 32 29 31 31 30 27 27 30 32 29 25 23 22 18 18 25